Weather observations for the past three days for
Walnut Ridge Regional Airport
Metric (Imperial)
Date Time (cdt) Wind (kph) Vis. (km) Weather Sky Cond. Temperature (ºC) Relative Humidity Wind Chill (°C) Heat Index (°C) Pressure Precipitation (cm)
Air Dwpt 6 hour altimeter (cm) sea level (mb) 1 hr 3 hr 6 hr
Max. Min.
04 20:56 S 20 16.09 Fair CLR 21.1 11.7 55% 75.59 1007.8
04 19:56 S 26 16.09 A Few Clouds FEW002 22.8 11.1 48% 75.57 1007.3
04 18:56 S 39 16.09 A Few Clouds and Breezy FEW002 25 11.1 27.2 25 42% 26 75.54 1007.0
04 17:56 S 35 G 44 16.09 Fair and Breezy CLR 26.1 11.1 39% 26 75.57 1007.5
04 16:56 SW 37 G 52 16.09 Fair and Breezy CLR 26.7 11.7 39% 27 75.59 1007.6
04 15:56 SW 37 G 52 16.09 A Few Clouds and Breezy FEW065 26.7 11.7 39% 27 75.62 1008.0
04 14:56 Calm 16.09 Fair CLR 26.7 11.7 39% 27 75.69 1008.9
04 13:56 SW 44 G 54 16.09 Fair and Windy CLR 26.1 11.1 39% 26 0 0.0
04 12:56 Calm 16.09 Fair CLR 26.1 11.1 26.1 14.4 39% 26 0 0.0
04 11:56 SW 41 16.09 Fair and Breezy CLR 25.6 11.1 40% 26 75.82 1010.7
04 10:56 SW 39 G 48 16.09 Fair and Breezy CLR 24.4 11.1 43% 26 75.87 1011.4
04 09:56 SW 33 16.09 A Few Clouds and Breezy FEW002 22.8 11.1 48% 75.9 1011.7
04 08:56 SW 26 16.09 A Few Clouds FEW002 20 11.7 59% 75.92 1012.3
04 07:56 S 15 16.09 A Few Clouds FEW002 17.2 12.8 76% 75.92 1012.1
04 06:56 S 15 16.09 A Few Clouds FEW002 14.4 12.2 16.7 13.9 87% 75.9 1011.9
04 05:56 S 15 16.09 Fair CLR 13.9 11.7 87% 75.87 1011.4
04 04:56 SW 11 16.09 Fair CLR 15.6 11.7 78% 0 0.0
04 03:56 SW 20 16.09 Fair CLR 16.1 11.7 75% 0 0.0
04 02:56 S 19 16.09 Fair CLR 16.1 11.7 75% 75.9 1011.8
04 01:56 S 20 16.09 Fair CLR 16.7 11.1 70% 75.95 1012.4
04 00:56 S 13 16.09 Fair CLR 16.1 11.7 22.8 16.1 75% 76 1013.2
03 23:56 S 13 16.09 Fair CLR 16.7 11.7 73% 76.02 1013.6
03 22:56 S 17 16.09 Fair CLR 17.2 11.7 70% 76.05 1013.9
03 21:56 S 19 16.09 Fair CLR 18.3 11.1 63% 76.05 1013.9
03 20:56 S 17 16.09 Fair CLR 18.9 10.6 59% 76.02 1013.7
03 19:56 S 22 16.09 Partly Cloudy SCT002 20.6 10.6 53% 76 1013.2
03 18:56 S 24 16.09 A Few Clouds FEW002 22.8 10 23.9 20.6 44% 76.05 1013.8
03 17:56 S 22 G 35 16.09 A Few Clouds FEW002 23.3 9.4 41% 76.07 1014.4
03 16:56 S 28 16.09 Fair CLR 23.3 8.9 40% 76.12 1014.9
03 15:56 S 31 G 37 16.09 Fair CLR 23.3 7.8 37% 76.2 1015.9
03 14:56 S 15 G 31 16.09 Fair CLR 22.2 6.7 37% 76.33 1017.5
03 13:56 SW 19 G 35 16.09 Fair CLR 21.7 6.7 38% 76.38 1018.3
03 12:56 SW 28 16.09 Fair CLR 20.6 6.7 20.6 7.8 41% 76.48 1019.6
03 11:56 SW 26 16.09 Fair CLR 19.4 6.7 44% 76.53 1020.5
03 10:56 S 22 16.09 Fair CLR 17.8 7.2 50% 76.61 1021.4
03 09:56 S 22 16.09 Fair CLR 15.6 6.7 56% 76.63 1021.8
03 08:56 S 20 16.09 Fair CLR 13.9 7.2 64% 76.63 1021.7
03 07:56 S 9 16.09 A Few Clouds FEW002 10.6 7.8 83% 76.63 1021.9
03 06:56 Calm 16.09 A Few Clouds FEW002 7.2 7.2 10.6 6.7 100% 76.61 1021.5
03 05:56 Calm 16.09 A Few Clouds FEW002 7.2 6.7 97% 76.58 1021.0
03 04:56 Calm 16.09 Fair CLR 7.8 6.7 93% 0 0.0
03 03:56 Calm 16.09 Fair CLR 8.3 5.6 83% 0 0.0
03 02:56 Calm 16.09 Fair CLR 8.9 5 77% 76.58 1021.0
03 01:56 Calm 16.09 Fair CLR 9.4 6.7 83% 76.56 1020.8
03 00:56 E 6 16.09 Fair CLR 10 5 18.3 10 71% 76.58 1020.9
02 23:56 E 9 16.09 Fair CLR 11.1 5 66% 76.56 1020.7
02 22:56 E 11 16.09 Fair CLR 11.1 5 66% 76.53 1020.3
02 21:56 NE 7 16.09 Fair CLR 13.3 4.4 55% 76.5 1019.9
02 20:56 N 11 16.09 Fair CLR 14.4 2.8 46% 76.43 1019.1
02 19:56 N 15 16.09 Fair CLR 15 2.8 44% 76.4 1018.7
02 18:56 N 19 16.09 Fair CLR 18.3 1.1 21.1 18.3 32% 76.35 1018.1
02 17:56 NW 20 16.09 Fair CLR 19.4 1.1 30% 76.35 1017.9
02 16:56 NW 28 16.09 Fair CLR 19.4 1.1 30% 76.33 1017.8
02 15:56 Calm 16.09 Partly Cloudy SCT085 20 1.7 30% 76.33 1017.8
02 14:56 NW 31 16.09 Mostly Cloudy BKN080 19.4 2.8 33% 76.33 1017.8
02 13:56 NW 28 G 41 16.09 Mostly Cloudy BKN085 20 2.2 31% 76.35 1018.0
02 12:56 N 24 16.09 Mostly Cloudy BKN080 BKN095 20 2.8 20.6 8.9 32% 76.38 1018.2
02 11:56 NW 17 16.09 A Few Clouds FEW080 19.4 3.3 35% 76.4 1018.8
02 10:56 N 13 16.09 Fair CLR 18.3 2.8 36% 76.43 1018.9
02 09:56 W 9 16.09 Fair CLR 16.1 6.1 52% 76.43 1019.0
02 08:56 SW 7 16.09 Fair CLR 13.9 5.6 58% 76.43 1019.0
02 07:56 W 11 16.09 Partly Cloudy FEW002 SCT100 10.6 6.7 77% 76.4 1018.8
02 06:56 Calm 16.09 A Few Clouds FEW002 8.9 6.1 13.3 8.3 83% 76.38 1018.3
02 05:56 Calm 16.09 Fair CLR 8.3 6.1 86% 76.33 1017.6
02 04:56 Calm 16.09 Fair CLR 9.4 7.2 86% 76.33 1017.5
02 03:56 Calm 16.09 Fair CLR 10 7.8 86% 76.3 1017.2
02 02:56 Calm 16.09 Fair CLR 11.1 7.8 80% 0 0.0
02 01:56 W 6 16.09 Fair CLR 11.7 9.4 86% 76.35 1017.9
02 00:56 Calm 16.09 Fair CLR 13.3 7.8 17.2 12.8 70% 76.38 1018.3
01 23:56 NE 6 16.09 Fair CLR 12.8 9.4 80% 76.33 1017.8
01 22:56 NE 6 16.09 Fair CLR 13.3 9.4 77% 76.33 1017.7
01 21:56 N 6 16.09 Fair CLR 13.9 7.2 64% 76.38 1018.3
Date Time (cdt) Wind (kph) Vis. (km) Weather Sky Cond. Air Dwpt Max. Min. Relative Humidity Wind Chill (°C) Heat Index (°C) altimeter (cm) sea level (mb) 1 hr 3 hr 6 hr
6 hour
Temperature (ºC) Pressure Precipitation (cm)